Date String (YYYY-MM-DD hh:mm:ss) UTC,Instrument flags,absolute air pressure of the measurement (hPa),sample flow rate (lpm),inlet stack bypass flow (lpm),air temperature of the measurement (°C),ambient temperature measured by the external sensor (°C),aerosol sample conditioner tube jacket temperature (°C),OPC LED temperature (°C),internal box temperature (°C),relative humidity of the measurement (%),span deviation,mass concentration of particles derived from Lorenz-Mie calculation of OPC scattering (μg/m³),mass concentration of particles derived from Lorenz-Mie calculation of OPC scattering (μg/m³),mass concentration of particles derived from Lorenz-Mie calculation of OPC scattering (μg/m³)
DateTimeUTC,F1_M11,P_M11,Q1_M11,Q2_M11,T1_M11,T2_M11,T3_M11,T4_M11,T5_M11,U1_M11,ZSPAN_M11,X0_M11,X2_M11,X1_M11
2024-04-30 06:00:00,SystemResetWarning,0822.0,4.99,000.00,025.5,024.6,000.0,034.1,027.3,015.6,0000.0,0007.52,0003.40,0001.77
2024-04-30 06:01:00,SystemResetWarning,0822.0,4.99,000.00,025.5,024.6,000.0,034.1,027.3,015.5,0000.0,0007.55,0003.40,0001.77
2024-04-30 06:02:00,SystemResetWarning,0822.0,5.01,000.00,025.5,024.6,000.0,034.1,027.3,015.4,0000.0,0007.71,0003.40,0001.76
2024-04-30 06:03:00,SystemResetWarning,0822.0,5.01,000.00,025.5,024.6,000.0,034.1,027.3,015.1,0000.0,0007.77,0003.36,0001.76
2024-04-30 06:04:00,SystemResetWarning,0821.9,5.00,000.00,025.5,024.6,000.0,034.1,027.3,015.0,0000.0,0007.70,0003.35,0001.77
2024-04-30 06:05:00,SystemResetWarning,0821.8,4.98,000.00,025.5,024.6,000.0,034.1,027.3,015.0,0000.0,0007.75,0003.36,0001.77
2024-04-30 06:06:00,SystemResetWarning,0821.8,5.01,000.00,025.5,024.6,000.0,034.0,027.3,015.0,0000.0,0007.77,0003.38,0001.77
2024-04-30 06:07:00,SystemResetWarning,0821.5,5.01,000.00,025.5,024.6,000.0,034.0,027.2,014.8,0000.0,0007.65,0003.34,0001.76
2024-04-30 06:08:00,SystemResetWarning,0821.4,5.00,000.00,025.4,024.5,000.0,034.0,027.2,014.6,0000.0,0007.62,0003.32,0001.77
2024-04-30 06:09:00,SystemResetWarning,0821.4,4.99,000.00,025.4,024.5,000.0,034.0,027.2,014.5,0000.0,0007.68,0003.35,0001.76
2024-04-30 06:10:00,SystemResetWarning,0821.4,4.99,000.00,025.4,024.5,000.0,034.0,027.2,014.2,0000.0,0007.74,0003.34,0001.77
2024-04-30 06:11:00,SystemResetWarning,0821.4,5.00,000.00,025.4,024.5,000.0,034.0,027.2,014.2,0000.0,0007.76,0003.34,0001.76
2024-04-30 06:12:00,SystemResetWarning,0821.3,5.00,000.00,025.4,024.5,000.0,034.0,027.2,014.3,0000.0,0007.81,0003.35,0001.77
2024-04-30 06:13:00,SystemResetWarning,0821.4,5.00,000.00,025.4,024.5,000.0,034.0,027.2,014.5,0000.0,0007.78,0003.35,0001.76
2024-04-30 06:14:00,SystemResetWarning,0821.3,5.00,000.00,025.4,024.5,000.0,034.0,027.1,014.5,0000.0,0007.88,0003.36,0001.76
2024-04-30 06:15:00,SystemResetWarning,0821.3,5.00,000.00,025.4,024.5,000.0,033.9,027.1,014.8,0000.0,0007.88,0003.35,0001.74
2024-04-30 06:16:00,SystemResetWarning,0821.3,5.00,000.00,025.4,024.5,000.0,033.9,027.1,014.9,0000.0,0007.81,0003.33,0001.73
2024-04-30 06:17:00,SystemResetWarning,0821.3,5.00,000.00,025.4,024.5,000.0,033.9,027.1,014.9,0000.0,0007.75,0003.30,0001.72
2024-04-30 06:18:00,SystemResetWarning,0821.4,4.99,000.00,025.3,024.4,000.0,033.9,027.1,015.0,0000.0,0007.86,0003.34,0001.72
2024-04-30 06:19:00,SystemResetWarning,0821.5,5.01,000.00,025.3,024.4,000.0,033.9,027.1,014.8,0000.0,0007.89,0003.35,0001.70
2024-04-30 06:20:00,SystemResetWarning,0821.5,5.00,000.00,025.3,024.4,000.0,033.9,027.1,014.9,0000.0,0007.75,0003.31,0001.71
2024-04-30 06:21:00,SystemResetWarning,0821.5,5.00,000.00,025.3,024.4,000.0,033.9,027.1,014.9,0000.0,0007.69,0003.32,0001.70
2024-04-30 06:22:00,SystemResetWarning,0821.9,5.00,000.00,025.3,024.4,000.0,033.9,027.1,015.0,0000.0,0007.66,0003.31,0001.69
2024-04-30 06:23:00,SystemResetWarning,0821.8,5.00,000.00,025.3,024.4,000.0,033.9,027.1,015.0,0000.0,0007.63,0003.30,0001.68
2024-04-30 06:24:00,SystemResetWarning,0821.5,5.01,000.00,025.3,024.4,000.0,033.9,027.1,014.9,0000.0,0007.28,0003.21,0001.67
2024-04-30 06:25:00,SystemResetWarning,0821.4,4.99,000.00,025.3,024.5,000.0,033.9,027.1,015.0,0000.0,0006.82,0003.15,0001.66
2024-04-30 06:26:00,SystemResetWarning,0821.4,5.00,000.00,025.3,024.5,000.0,033.9,027.1,014.8,0000.0,0006.64,0003.14,0001.66
2024-04-30 06:27:00,SystemResetWarning,0821.3,5.01,000.00,025.3,024.5,000.0,033.8,027.1,014.7,0000.0,0007.83,0003.13,0001.66
2024-04-30 06:28:00,SystemResetWarning,0821.3,5.00,000.00,025.3,024.4,000.0,033.8,027.1,014.7,0000.0,0008.31,0003.15,0001.66
2024-04-30 06:29:00,SystemResetWarning,0821.3,4.99,000.00,025.3,024.4,000.0,033.8,027.1,014.8,0000.0,0008.76,0003.15,0001.66
2024-04-30 06:30:00,SystemResetWarning,0821.2,5.00,000.00,025.3,024.4,000.0,033.8,027.1,014.9,0000.0,0008.74,0003.14,0001.65
2024-04-30 06:31:00,SystemResetWarning,0821.2,5.01,000.00,025.3,024.5,000.0,033.8,027.1,014.9,0000.0,0008.92,0003.21,0001.65
2024-04-30 06:32:00,SystemResetWarning,0821.2,5.01,000.00,025.3,024.5,000.0,033.8,027.1,015.0,0000.0,0009.00,0003.25,0001.65
2024-04-30 06:33:00,SystemResetWarning,0821.3,5.00,000.00,025.3,024.5,000.0,033.8,027.1,015.0,0000.0,0009.24,0003.28,0001.65
2024-04-30 06:34:00,SystemResetWarning,0821.3,5.00,000.00,025.3,024.5,000.0,033.8,027.1,014.8,0000.0,0009.29,0003.30,0001.67
2024-04-30 06:35:00,SystemResetWarning,0821.3,4.99,000.00,025.3,024.5,000.0,033.8,027.1,015.0,0000.0,0009.38,0003.34,0001.67
2024-04-30 06:36:00,SystemResetWarning,0821.2,4.99,000.00,025.3,024.5,000.0,033.8,027.1,015.3,0000.0,0009.37,0003.35,0001.66
2024-04-30 06:37:00,SystemResetWarning,0821.2,5.00,000.00,025.3,024.5,000.0,033.8,027.1,015.3,0000.0,0009.27,0003.34,0001.66
2024-04-30 06:38:00,SystemResetWarning,0821.2,5.00,000.00,025.3,024.5,000.0,033.8,027.1,015.1,0000.0,0008.50,0003.35,0001.67
2024-04-30 06:39:00,SystemResetWarning,0821.3,5.00,000.00,025.3,024.5,000.0,033.8,027.1,015.1,0000.0,0008.15,0003.35,0001.67
2024-04-30 06:40:00,SystemResetWarning,0821.2,5.01,000.00,025.3,024.4,000.0,033.8,027.1,015.0,0000.0,0007.80,0003.39,0001.68
2024-04-30 06:41:00,SystemResetWarning,0821.1,5.00,000.00,025.3,024.4,000.0,033.8,027.1,015.1,0000.0,0008.16,0003.42,0001.68
2024-04-30 06:42:00,SystemResetWarning,0821.0,4.98,000.00,025.3,024.4,000.0,033.8,027.1,015.3,0000.0,0008.25,0003.35,0001.67
2024-04-30 06:43:00,SystemResetWarning,0821.1,5.00,000.00,025.3,024.4,000.0,033.8,027.1,014.8,0000.0,0008.65,0003.33,0001.67
2024-04-30 06:44:00,SystemResetWarning,0821.0,5.01,000.00,025.3,024.4,000.0,033.8,027.1,014.8,0000.0,0008.53,0003.35,0001.68
2024-04-30 06:45:00,SystemResetWarning,0821.1,4.99,000.00,025.3,024.4,000.0,033.8,027.1,014.8,0000.0,0008.51,0003.34,0001.67
2024-04-30 06:46:00,SystemResetWarning,0821.2,4.98,000.00,025.3,024.5,000.0,033.8,027.1,014.7,0000.0,0008.51,0003.34,0001.68
2024-04-30 06:47:00,SystemResetWarning,0820.9,5.01,000.00,025.3,024.5,000.0,033.8,027.1,014.8,0000.0,0008.53,0003.36,0001.69
2024-04-30 06:48:00,SystemResetWarning,0820.9,5.01,000.00,025.3,024.5,000.0,033.8,027.1,014.6,0000.0,0008.58,0003.39,0001.70
2024-04-30 06:49:00,SystemResetWarning,0821.0,5.00,000.00,025.3,024.5,000.0,033.8,027.1,014.4,0000.0,0008.42,0003.37,0001.70
2024-04-30 06:50:00,SystemResetWarning,0821.0,5.00,000.00,025.3,024.5,000.0,033.8,027.1,014.4,0000.0,0008.31,0003.35,0001.69
2024-04-30 06:51:00,SystemResetWarning,0821.0,5.00,000.00,025.3,024.5,000.0,033.8,027.1,014.6,0000.0,0008.30,0003.33,0001.68
2024-04-30 06:52:00,SystemResetWarning,0820.9,5.00,000.00,025.3,024.5,000.0,033.8,027.1,014.8,0000.0,0008.06,0003.30,0001.69
2024-04-30 06:53:00,SystemResetWarning,0821.0,5.00,000.00,025.3,024.5,000.0,033.8,027.1,014.9,0000.0,0008.00,0003.31,0001.71
2024-04-30 06:54:00,SystemResetWarning,0821.2,4.99,000.00,025.3,024.5,000.0,033.8,027.1,014.5,0000.0,0007.43,0003.30,0001.71
2024-04-30 06:55:00,SystemResetWarning,0821.2,5.00,000.00,025.3,024.5,000.0,033.8,027.1,014.3,0000.0,0007.49,0003.27,0001.70
2024-04-30 06:56:00,SystemResetWarning,0820.9,5.01,000.00,025.3,024.5,000.0,033.8,027.1,014.3,0000.0,0007.45,0003.26,0001.69
2024-04-30 06:57:00,SystemResetWarning,0821.1,5.00,000.00,025.3,024.5,000.0,033.8,027.1,014.2,0000.0,0007.42,0003.24,0001.68
2024-04-30 06:58:00,SystemResetWarning,0820.8,5.01,000.00,025.3,024.5,000.0,033.8,027.1,014.3,0000.0,0007.97,0003.20,0001.67
2024-04-30 06:59:00,SystemResetWarning,0820.8,5.00,000.00,025.3,024.5,000.0,033.8,027.1,014.8,0000.0,0008.00,0003.21,0001.67
